Starlink 34133

operational
NORAD ID: 64143 Int'l Des: 2025-111 Owner: SPXS Country: US Constellation: starlink
LEOCIRCULAR

关于 Starlink 34133

正在加载描述...

实时位置

正在加载3D地球...

即将过境

高度历史

Altitude vs Time

uPlot chart will show altitude changes over time

两行轨道根数

1 64143U 25111W 25260.46163605 .00027811 00000-0 10169-2 0 9992
2 64143 43.0027 335.8887 0001773 272.9685 87.0964 15.27560497 18970
Epoch: Sep 17, 2025 • Age: 39 hours

当前状态

高度 495.0 km
速度 7.62 km/s
星下点 -43.12°S, 153.01°W
发射日期 May 24, 2025
运行时间 0.3 years
类型 internet

技术详情

分类 Payload
质量 575.00 kg
干质量 530.00 kg
总质量 575.00 kg
长度 0.30 m
直径 4.10 m
跨度 29.00 m
形状 Box + pan
制造商 SPXS
平台类型 Starlink V2MO
阶段状态 In Orbit
所有者/国家 SPXS/US

大型星座

Loading constellations...